Погода в Шимле

Индия     31°06′37″N   77°09′01″E
темп.,
°C
ветер,
м/с
пор.,
м/с
влажн.,
%
обл.,
%
осадки,
мм/ч
давл.,
гПа
погр.,
м
8 марта, пн
пн823:30+10всв337463 1.3 101545
02:30+11всв3370100 2.3 101459
05:30+10всв3377100 3.1 101473
08:30+13всв336734 0.3 1017231
11:30+20ю123617 0.5 10161947
14:30+19ю123663 0.0 10142238
17:30+16ссв124873 0.3 101442
20:30+11всв337240 0.5 101861
9 марта, вт
вт923:30+10всв437062 0.6 101981
02:30+11всв336099 0.2 101847
05:30+10всв335971 0.2 101839
08:30+14всв33529 0.0 1019131
11:30+21зсз12264 0.0 10172499
14:30+21з322529 0.0 10152772
17:30+19з223058 0.0 101475
20:30+13св12341 0.0 101723
10 марта, ср
ср1023:30+12всв23410 0.0 101824
02:30+11всв33450 0.0 101831
05:30+10всв23430 0.0 101724
08:30+15св233856 0.0 1018113
11:30+21ссз212141 0.0 10162902
14:30+21зсз322083 0.0 10133007
17:30+19сз222762 0.0 101269
20:30+13св33370 0.0 101629
11 марта, чт
чт1123:30+12всв33400 0.0 101835
02:30+11всв33380 0.0 101729
05:30+11всв33350 0.0 101728
08:30+15всв33330 0.0 1018102
11:30+23ссв12180 0.0 10162981
14:30+22юз431833 0.0 10133439
17:30+20зюз112867 0.0 101337
20:30+15всв333184 0.0 101632
12 марта, пт
пт1223:30+13всв333780 0.0 101740
02:30+13в333368 0.0 101740
05:30+13всв333383 0.0 101756
08:30+14св4444100 0.0 1019212
11:30+22ююв492399 0.0 10183172
14:30+22ю7824100 0.0 10153310
17:30+19ююв2332100 0.0 1015131
20:30+13в234745 0.8 101930